Regional Weather Roundup
Issued by NWS

Home | Current Version | Previous Version | Graphics & Text | Print | Product List | Glossary On
Versions: 1 2 3 4 5 6 7 8 9 10 11 12 13 14 15 16 17 18 19 20 21 22 23 24 25 26 27 28 29 30 31 32 33 34 35 36 37 38 39 40 41 42 43 44 45 46 47 48 49 50
000
ASUS43 KMKX 030911
RWRWI

WISCONSIN REGIONAL WEATHER ROUNDUP
NATIONAL WEATHER SERVICE MILWAUKEE/SULLIVAN WI
400 AM CDT MON AUG 03 2015

NOTE: "FAIR" INDICATES FEW OR NO CLOUDS BELOW 12,000 FEET WITH NO
SIGNIFICANT WEATHER AND/OR OBSTRUCTIONS TO VISIBILITY.

WIZ001-002-006>008-014>016-023>028-031000-
NORTHWEST WISCONSIN

CITY           SKY/WX    TMP DP  RH WIND       PRES   REMARKS
SUPERIOR ARPT  CLEAR     54  48  81 SW7       29.78F
ASHLAND        CLEAR     56  50  80 SW6       29.77S
HAYWARD        CLEAR     52  48  86 S3        29.81S
SIREN          CLEAR     56  48  73 W7        29.84S
CUMBERLAND     CLEAR     52  46  82 W7        29.84S
RICE LAKE      CLEAR     54  48  82 CALM      29.85S
CHETEK         CLEAR     58  49  73 W6        29.83S
LADYSMITH      CLEAR     54  48  80 SW3       29.83S
EAU CLAIRE     CLEAR     57  48  72 W6        29.83S
MENOMONIE      CLEAR     59  52  77 W5        29.85S
NEW RICHMOND   CLEAR     54  49  83 W3        29.86S
OSCEOLA        PTCLDY    52  52 100 CALM      29.88S
$$

WIZ003>005-009-010-017-018-031000-
NORTH CENTRAL WISCONSIN

CITY           SKY/WX    TMP DP  RH WIND       PRES   REMARKS
MANITOWISH WTR CLOUDY    55  52  90 CALM      29.77F
ARBOR VITAE    CLOUDY    57  54  89 CALM      29.77F
WOODRUFF       CLOUDY    57  54  89 CALM      29.77F
RHINELANDER    CLOUDY    55  51  86 W5        29.78F
EAGLE RIVER    CLOUDY    57  49  74 W5        29.76F
LAND O LAKES   CLOUDY    59  48  66 W5        29.77F
PHILLIPS       MOCLDY    54  50  88 CALM      29.79S
TOMAHAWK       MOCLDY    52  50  93 CALM      29.79F
MEDFORD        CLEAR     54  50  86 W7        29.80F
MERRILL        NOT AVBL
$$

WIZ029-030-035-036-043>047-031000-
CENTRAL WISCONSIN

CITY           SKY/WX    TMP DP  RH WIND       PRES   REMARKS
WAUSAU         CLEAR     59  52  77 N3        29.77F
MOSINEE        CLEAR     57  52  82 NW7       29.80S
MARSHFIELD     CLEAR     57  49  74 NW7       29.81S
STEVENS POINT  CLEAR     58  53  80 W5        29.80R
WAUPACA        CLEAR     62  54  73 W5        29.78S
WAUTOMA        CLEAR     59  56  89 W6        29.80R
WISC RAPIDS    CLEAR     58  52  80 W6        29.81S
CAMP DOUGLAS   CLEAR     52  52 100 W6        29.82R
$$

WIZ011>013-019>022-031-037>040-048>050-031000-
NORTHEAST WISCONSIN

CITY           SKY/WX    TMP DP  RH WIND       PRES   REMARKS
ANTIGO         CLEAR     53  51  94 W6        29.78F
SHAWANO        CLEAR     60  56  85 W7        29.76S
OCONTO         CLEAR     57  57 100 W6        29.73S
STURGEON BAY   MOCLDY    63  54  72 W7        29.74S
GREEN BAY      PTCLDY    60  57  89 NW9       29.75S
MANITOWOC      PTCLDY    63  60  90 MISG      29.75R
APPLETON       PTCLDY    59  54  82 NW8       29.78R
CLINTONVILLE   CLEAR     59  54  82 NW6       29.77R
OSHKOSH        PTCLDY    62  56  80 W7        29.77R
$$

WIZ032>034-041-042-053>061-031000-
SOUTHWEST WISCONSIN

CITY           SKY/WX    TMP DP  RH WIND       PRES   REMARKS
LA CROSSE      CLEAR     62  52  69 N3        29.84R
SPARTA         CLEAR     52  49  89 CALM      29.84S
VIROQUA        CLEAR     58  51  77 NW3       29.86R
BOSCOBEL       CLEAR     61  55  81 CALM      29.84R
PRAIRIE DU CHI CLEAR     65  56  72 CALM      29.84R
PLATTEVILLE    CLEAR     65  59  82 N5        29.84R
$$

WIZ056-057-062-063-064-067-068-031000-
SOUTH CENTRAL WISCONSIN

CITY           SKY/WX    TMP DP  RH WIND       PRES   REMARKS
REEDSBURG      CLEAR     63  52  67 W5        29.82R
BARABOO/DELLS  CLEAR     64  51  64 NW5       29.82R
LONE ROCK      CLEAR     63  56  78 W5        29.83R
MINERAL POINT  CLEAR     64  55  72 NW5       29.84R
MADISON        CLEAR     64  58  80 CALM      29.80R
MIDDLETON      CLEAR     63  57  82 CALM      29.82R
WATERTOWN      FAIR      61  60  99 CALM      29.78S
MONROE         CLOUDY    68  61  77 NW6       29.82R
JANESVILLE     PTCLDY    64  61  88 NW5       29.78S
$$

WIZ051-052-058>065-066-070>072-031000-
SOUTHEAST WISCONSIN

CITY           SKY/WX    TMP DP  RH WIND       PRES   REMARKS
MILWAUKEE      CLEAR     67  59  75 NW5       29.75R
WAUKESHA       CLEAR     63  59  88 W6        29.78R
MILWAUKEE/TIMM CLEAR     63  57  82 CALM      29.77R
RACINE         CLEAR     64  60  87 W5        29.77R
BURLINGTON     CLEAR     60  58  92 NW5       29.77R
KENOSHA        CLEAR     63  61  93 W5        29.76R
FOND DU LAC    CLEAR     62  57  83 NW12      29.77S
SHEBOYGAN      CLEAR     63  60  90 NW7       29.75R
WEST BEND      CLEAR     61  59  94 NW6       29.77R
JUNEAU         CLEAR     62  56  79 NW6       29.79S
$$

LSZ147-162-031000-
LAKE SUPERIOR

STATION/POSITION TIME  TEMP    WIND        PRES    WAVE
                       AIR SEA DIR/SP/G            HT/PER
                 (UTC) (F)     (DEG/KT/KT) (MB)    (FT/S)
W MID LAKE BUOY  0850   58 55  260/ 12/ 14 1005.9F   1/ 3
DEVILS ISLAND    0900   63     250/ 14/ 18 1006.8F
PORT WING        0800   62     230/  8/ 11 1008.1S
SAXON HARBOR     0840   61                 1007.1F
$$

LMZ867-665-643>646-031000-
LAKE MICHIGAN

STATION/POSITION TIME  TEMP    WIND        PRES    WAVE
                       AIR SEA DIR/SP/G            HT/PER
                 (UTC) (F)     (DEG/KT/KT) (MB)    (FT/S)
CHAMBERS ISLAND  0800   63     270/  3/ 13 1006.1R
S GREEN BAY BUOY 0900   62 63  280/ 10/ 14 1008.0F
N MID LAKE BUOY  0850   65 68  290/ 14/ 16 1004.5R   2/ 6
NORTHPORT PIER   0800   65     290/  6/ 13 1005.8R
ALGOMA LAKESHORE 0812           CALM  /  3   N/A
KEWAUNEE LAKESHO 0800   62     300/  4/  6 1006.1R
SHEBOYGAN LAKESH 0900   65     290/ 12/ 15 1007.2R
PORT WASHINGTON  0800   65     300/  5/  7 1007.8S
ATWATER BUOY     0900   62 60  350/  2/  4 1009.0R
MILWAUKEE LAKESH 0800   67     340/  4/  5   N/A
KENOSHA   LAKESH 0900   68     270/  7/  8 1007.5R
$$

TC  - TEMPERATURE IN CELSIUS
VSB - VISIBILITY IN STATUTE MILES
WCI - WIND CHILL INDEX
HX  - HEAT INDEX



USA.gov is the U.S. government's official web portal to all federal, state and local government web resources and services.